This is the latest recevied weather packets stored in our database for station/object SV9TNF-52. If no packets are shown the sender has not sent any weather packets the latest 10 day(s).
| Time | Temp. | Humidity | Pressure | Rain* | Wind** | Luminosity | Snow |
|---|---|---|---|---|---|---|---|
| 1788303809 | 22.78° C | 77% | 1020 hPa | 0 mm | 4.92 m/s, 222° | - | - |
| 1788303509 | 22.78° C | 77% | 1020 hPa | 0 mm | 5.81 m/s, 221° | - | - |
| 1788303209 | 22.78° C | 77% | 1020 hPa | 0 mm | 5.81 m/s, 189° | - | - |
| 1788302909 | 22.78° C | 77% | 1020 hPa | 0 mm | 6.26 m/s, 193° | - | - |
| 1788302609 | 22.78° C | 77% | 1020 hPa | 0 mm | 6.71 m/s, 235° | - | - |
| 1788302308 | 22.78° C | 76% | 1020 hPa | 0 mm | 4.92 m/s, 237° | - | - |
| 1788302008 | 23.33° C | 76% | 1020 hPa | 0 mm | 4.92 m/s, 168° | - | - |
| 1788301709 | 23.33° C | 76% | 1020 hPa | 0 mm | 4.92 m/s, 231° | - | - |
| 1788301408 | 23.33° C | 76% | 1020 hPa | 0 mm | 5.81 m/s, 205° | - | - |
| 1788301108 | 23.33° C | 76% | 1020 hPa | 0 mm | 5.81 m/s, 252° | - | - |
| 1788300808 | 23.33° C | 76% | 1020 hPa | 0 mm | 5.81 m/s, 205° | - | - |
| 1788300508 | 23.33° C | 76% | 1020 hPa | 0 mm | 5.36 m/s, 228° | - | - |
| 1788300208 | 23.33° C | 75% | 1020 hPa | 0 mm | 5.36 m/s, 194° | - | - |
| 1788299907 | 23.33° C | 75% | 1020 hPa | 0 mm | 4.47 m/s, 203° | - | - |
| 1788299608 | 23.33° C | 75% | 1020 hPa | 0 mm | 4.92 m/s, 177° | - | - |
| 1788299307 | 23.33° C | 75% | 1020 hPa | 0 mm | 5.81 m/s, 175° | - | - |
| 1788299007 | 23.33° C | 75% | 1020 hPa | 0 mm | 4.92 m/s, 162° | - | - |
| 1788298707 | 23.33° C | 75% | 1020 hPa | 0 mm | 4.92 m/s, 216° | - | - |
| 1788298407 | 23.33° C | 75% | 1020 hPa | 0 mm | 6.71 m/s, 223° | - | - |
| 1788298107 | 23.33° C | 75% | 1020 hPa | 0 mm | 4.92 m/s, 218° | - | - |
| 1788297807 | 23.33° C | 74% | 1020 hPa | 0 mm | 6.71 m/s, 199° | - | - |
| 1788297507 | 23.33° C | 74% | 1020 hPa | 0 mm | 8.05 m/s, 208° | - | - |
| 1788297207 | 23.33° C | 74% | 1020 hPa | 0 mm | 4.92 m/s, 193° | - | - |
| 1788296907 | 23.33° C | 73% | 1020 hPa | 0 mm | 5.36 m/s, 201° | - | - |
| 1788296607 | 23.33° C | 73% | 1020 hPa | 0 mm | 6.71 m/s, 180° | - | - |
* Rain latest hour (hover to see other rain measurements)
** Current wind speed in m/s (hover to see current wind gust speed)